Weather History for KEGI - March, 2013

Change the Weather History Date:

Friday, March 15, 2013

  Actual Average Record
Temperature  
Mean Temperature 52 °F -  
Max Temperature 72 °F - - ()
Min Temperature 34 °F - - ()
Degree Days  
Heating Degree Days 12    
Growing Degree Days 2 (Base 50)    
Moisture  
Dew Point 39 °F    
Average Humidity 61    
Maximum Humidity 89    
Minimum Humidity 29    
Precipitation  
Precipitation 0.00 in - - ()
Sea Level Pressure  
Sea Level Pressure 30.24 in    
Wind  
Wind Speed 4 mph (SW)    
Max Wind Speed 15 mph    
Max Gust Speed 20 mph    
Visibility 10 miles    
Events      
T = Trace of Precipitation, MM = Missing Value Source: NWS Daily Summary

Daily Weather History Graph

Daily Weather History Graph

Search for Another Location

Airport or City:

Trip Planner

Search our weather history database for the weather conditions in past years. The results will help you decide how hot, cold, wet, or windy it might be!

Date:

Astronomy

Mar. 15, 2013 Rise Set
Actual Time 6:55 AM CDT 6:54 PM CDT
Civil Twilight 6:31 AM CDT 7:18 PM CDT
Nautical Twilight 6:03 AM CDT 7:46 PM CDT
Astronomical Twilight 5:35 AM CDT 8:14 PM CDT
Moon 9:03 AM CDT (3/15) 10:48 PM CDT (3/15)
Length of Visible Light 12h 46m
Length of Day
11h 58m
Waxing Crescent, 15% of the Moon is Illuminated
Mar 15
Waxing Crescent
Mar 19
First Quarter
Mar 27
Full
Apr 2
Last Quarter
Apr 10
New

Hourly Weather History & Observations

Time (CDT) Temp. Dew Point Humidity Pressure Visibility Wind Dir Wind Speed Gust Speed Precip Events Conditions
12:58 AM 39.4 °F 33.1 °F 78% 30.31 in 10.0 mi Calm Calm - N/A   Clear
1:58 AM 37.4 °F 29.8 °F 74% 30.29 in 10.0 mi Calm Calm - N/A   Clear
2:58 AM 36.1 °F 30.6 °F 80% 30.29 in 10.0 mi NE 2.3 mph - N/A   Clear
3:58 AM 35.4 °F 30.7 °F 83% 30.27 in 10.0 mi Calm Calm - N/A   Clear
4:58 AM 35.1 °F 30.4 °F 83% 30.27 in 10.0 mi Calm Calm - N/A   Clear
5:58 AM 35.1 °F 31.3 °F 86% 30.28 in 10.0 mi Calm Calm - N/A   Clear
6:58 AM 34.0 °F 30.7 °F 88% 30.29 in 10.0 mi Calm Calm - N/A   Clear
7:58 AM 39.6 °F 35.1 °F 84% 30.30 in 10.0 mi Calm Calm - N/A   Clear
8:55 AM 53.1 °F 40.8 °F 63% 30.31 in 10.0 mi West 6.9 mph - N/A   Clear
9:55 AM 61.0 °F 36.9 °F 41% 30.30 in 10.0 mi WSW 5.8 mph - N/A   Clear
10:55 AM 65.5 °F 35.4 °F 33% 30.30 in 10.0 mi SW 4.6 mph - N/A   Clear
11:11 AM 66.2 °F 35.6 °F 32% 30.29 in 10.0 mi WSW 3.5 mph - N/A   Clear
11:55 AM 68.9 °F 35.2 °F 29% 30.28 in 10.0 mi WSW 8.1 mph - N/A   Clear
12:55 PM 70.2 °F 36.1 °F 29% 30.24 in 10.0 mi SSW 9.2 mph - N/A   Partly Cloudy
1:55 PM 71.8 °F 38.3 °F 30% 30.21 in 7.0 mi SW 12.7 mph 19.6 mph N/A   Partly Cloudy
2:55 PM 70.3 °F 39.6 °F 33% 30.19 in 8.0 mi South 13.8 mph - N/A   Scattered Clouds
3:55 PM 70.0 °F 41.4 °F 35% 30.17 in 10.0 mi SW 15.0 mph - N/A   Partly Cloudy
4:55 PM 68.0 °F 43.2 °F 41% 30.16 in 10.0 mi SSW 15.0 mph - N/A   Partly Cloudy
5:55 PM 65.7 °F 43.7 °F 45% 30.17 in 10.0 mi SSW 13.8 mph - N/A   Partly Cloudy
6:58 PM 61.7 °F 45.1 °F 55% 30.18 in 10.0 mi SSW 9.2 mph - N/A   Partly Cloudy
7:52 PM 58.5 °F 47.5 °F 67% 30.19 in 10.0 mi SSW 6.9 mph - N/A   Partly Cloudy
7:55 PM 58.5 °F 47.5 °F 67% 30.19 in 10.0 mi SSW 6.9 mph - N/A   Partly Cloudy
8:55 PM 56.7 °F 48.9 °F 75% 30.19 in 10.0 mi SSW 6.9 mph - N/A   Clear
9:55 PM 55.4 °F 49.1 °F 79% 30.19 in 10.0 mi SSW 5.8 mph - N/A   Clear
10:56 PM 52.3 °F 47.5 °F 84% 30.18 in 10.0 mi SSW 5.8 mph - N/A   Clear
11:55 PM 49.6 °F 46.6 °F 89% 30.16 in 10.0 mi South 6.9 mph - N/A   Clear